FW9255 Weather Reports


time (UTC)temp
C
wind
direction
speed
KPH
gust
KPH
rain 1hr
cm
rain 24hr
cm
rain mn
cm
humidity
%
barometer
mb
20260506004556 21 319 3.2 22.5 0.00 0.00 0.00 70 1007.5
20260506003058 21 36 4.8 17.7 0.00 0.00 0.00 68 1006.9
20260506001644 22 352 6.4 20.9 0.00 0.00 0.00 67 1006.6
20260506000058 22 309 6.4 24.1 0.00 0.00 0.00 66 1006.5
20260505234557 23 336 6.4 17.7 0.00 0.00 0.00 66 1006.5
20260505233056 24 352 4.8 19.3 0.00 0.00 0.00 64 1006.4
20260505231557 25 344 6.4 22.5 0.00 0.00 0.00 62 1006.1
20260505230106 26 32 4.8 19.3 0.00 0.00 0.00 62 1005.9
20260505224554 27 318 4.8 19.3 0.00 0.00 0.00 59 1005.5
20260505223108 28 326 6.4 16.1 0.00 0.00 0.00 56 1005.6
20260505221554 28 311 9.7 20.9 0.00 0.00 0.00 54 1005.2
20260505220059 30 311 4.8 17.7 0.00 0.00 0.00 51 1005.0
20260505214555 30 297 6.4 17.7 0.00 0.00 0.00 47 1004.9
20260505213059 31 338 6.4 20.9 0.00 0.00 0.00 46 1005.1
20260505211554 31 319 0.0 14.5 0.00 0.00 0.00 48 1004.8
20260505210124 32 291 0.0 9.7 0.00 0.00 0.00 53 1005.1
20260505204601 31 0 1.6 16.1 0.00 0.00 0.00 54 1005.2
20260505203100 31 299 0.0 14.5 0.00 0.00 0.00 57 1005.3
20260505201554 31 275 9.7 22.5 0.00 0.00 0.00 56 1005.4
20260505200054 31 0 0.0 17.7 0.00 0.00 0.00 57 1005.6
20260505194610 30 0 1.6 17.7 0.00 0.00 0.00 57 1005.7
20260505193054 30 0 4.8 20.9 0.00 0.00 0.00 59 1005.8
20260505191554 30 0 3.2 20.9 0.00 0.00 0.00 59 1005.5
20260505190053 29 192 0.0 16.1 0.00 0.00 0.00 65 1005.6
20260505184554 28 0 1.6 14.5 0.00 0.00 0.00 65 1005.6
20260505183101 28 128 3.2 17.7 0.00 0.00 0.00 65 1005.8
20260505181554 28 0 3.2 19.3 0.00 0.00 0.00 65 1005.7
20260505180054 28 0 4.8 19.3 0.00 0.00 0.00 64 1005.7
20260505174558 28 0 0.0 16.1 0.00 0.00 0.00 67 1005.7
20260505173056 27 272 1.6 25.7 0.00 0.00 0.00 68 1005.7
20260505171556 27 0 3.2 16.1 0.00 0.00 0.00 68 1005.8
20260505170058 26 203 3.2 14.5 0.00 0.00 0.00 70 1005.8
20260505164604 26 0 8.0 20.9 0.00 0.00 0.00 70 1006.0
20260505163108 26 0 0.0 16.1 0.00 0.00 0.00 73 1005.7
20260505161558 25 184 1.6 24.1 0.00 0.00 0.00 73 1005.6
20260505153114 25 158 4.8 19.3 0.00 0.00 0.00 74 1005.4
20260505151604 24 173 1.6 24.1 0.00 0.00 0.00 76 1005.3
20260505140108 22 0 0.0 11.3 0.00 0.00 0.00 81 1005.3
20260505124554 21 0 0.0 14.5 0.00 0.00 0.00 84 1005.1
20260505123106 21 207 0.0 8.0 0.00 0.00 0.00 84 1004.8
20260505121555 21 200 3.2 16.1 0.00 0.00 0.00 84 1004.5
20260505114558 21 182 4.8 16.1 0.00 0.00 0.00 84 1004.5
20260505113100 21 166 0.0 0.0 0.00 0.00 0.00 84 1004.5
20260505111559 21 0 0.0 11.3 0.00 0.00 0.00 83 1004.4
20260505101602 21 0 3.2 17.7 0.00 0.00 0.00 82 1004.5
20260505100056 22 169 8.0 22.5 0.00 0.00 0.00 81 1004.4
20260505094606 22 139 4.8 17.7 0.00 0.00 0.00 81 1004.4
20260505093055 22 213 4.8 19.3 0.00 0.00 0.00 81 1004.5
20260505091600 22 134 8.0 24.1 0.00 0.00 0.00 80 1004.7
20260505090059 22 161 4.8 17.7 0.00 0.00 0.00 80 1004.9
20260505084555 22 209 8.0 25.7 0.00 0.00 0.00 79 1004.9
20260505083056 22 199 6.4 22.5 0.00 0.00 0.00 78 1004.8
20260505081605 22 157 4.8 20.9 0.00 0.00 0.00 77 1004.9
20260505080055 22 130 4.8 17.7 0.00 0.00 0.00 76 1005.0
20260505074609 22 155 6.4 19.3 0.00 0.00 0.00 76 1005.1
20260505073057 22 191 6.4 17.7 0.00 0.00 0.00 75 1005.4
20260505071556 23 214 8.0 24.1 0.00 0.00 0.00 74 1005.6
20260505070056 23 206 6.4 20.9 0.00 0.00 0.00 73 1005.8
20260505064556 23 175 6.4 20.9 0.00 0.00 0.00 72 1006.1
20260505063058 23 233 6.4 20.9 0.00 0.00 0.00 71 1006.3
20260505061621 23 172 4.8 19.3 0.00 0.00 0.00 70 1006.3
20260505060059 23 159 6.4 17.7 0.00 0.00 0.00 70 1006.4
20260505054618 23 200 4.8 20.9 0.00 0.00 0.00 70 1006.2
20260505053055 23 167 6.4 17.7 0.00 0.00 0.00 70 1006.3
20260505051555 23 157 6.4 17.7 0.00 0.00 0.00 70 1006.4
20260505041555 23 184 6.4 20.9 0.00 0.00 0.00 69 1006.6
20260505040100 23 169 8.0 20.9 0.00 0.00 0.00 69 1006.6
20260505034556 23 142 4.8 16.1 0.00 0.00 0.00 69 1006.6
20260505033055 23 161 9.7 25.7 0.00 0.00 0.00 69 1006.6
20260505031605 23 141 8.0 20.9 0.00 0.00 0.00 68 1006.7
20260505030104 23 156 6.4 12.9 0.00 0.00 0.00 68 1006.8
20260505024611 23 165 6.4 17.7 0.00 0.00 0.00 68 1006.8
20260505023056 24 131 1.6 25.7 0.00 0.00 0.00 68 1006.8
20260505021608 24 0 3.2 19.3 0.00 0.00 0.00 67 1006.6
20260505020054 24 182 1.6 22.5 0.00 0.00 0.00 66 1006.6
20260505014558 24 163 6.4 27.4 0.00 0.00 0.00 65 1006.5
20260505013057 25 119 6.4 20.9 0.00 0.00 0.00 65 1006.6
20260505011558 25 176 3.2 25.7 0.00 0.00 0.00 64 1006.5
20260505010055 25 125 6.4 24.1 0.00 0.00 0.00 64 1006.5